User: anonymous   Login
Location: Caltech
(34.1382°N, 118.1253°W)
Time: 03:28:32
(UTC-08:00)
Language:

GPS 2-04 Rocket1 - Orbit

View from above orbital plane
View from above orbital plane
View from above satellite
View from above satellite

Ground track
Ground track

The orbit data is extracted from the following two-line orbital elements,

1 20303U 89085B   17328.56027407 +.00004197 +00000-0 +14570-3 0  9991
2 20303 035.6293 117.3982 0104155 150.7753 209.8852 15.24302081525566
Epoch (UTC): 24 November 2017 13:26:47
Eccentricity: 0.0104155
inclination: 35.6293°
perigee height: 421 km
apogee height: 564 km
right ascension of ascending node: 117.3982°
argument of perigee: 150.7753°
revolutions per day: 15.24302081
mean anomaly at epoch: 209.8852°
orbit number at epoch: 52556

The dashed part of the orbit path shows where the satellite is in the earth's shadow,  

DLR